Regional Weather Roundup
Issued by NWS Columbia, SC

Home | Current Version | Previous Version | Text Only | Print | Product List | Glossary On
Versions: 1 2 3 4 5 6 7 8 9 10 11 12 13 14 15 16 17 18 19 20 21 22 23 24 25 26 27
000
ASUS42 KCAE 272310
RWRCAE
REGIONAL WEATHER ROUNDUP
NATIONAL WEATHER SERVICE COLUMBIA SC
700 PM EDT THU APR 27 2017

NOTE: "FAIR" INDICATES FEW OR NO CLOUDS BELOW 12,000 FEET WITH NO
SIGNIFICANT WEATHER AND/OR OBSTRUCTIONS TO VISIBILITY.

NOT ALL STATIONS ARE QUALITY CONTROLLED BY THE NATIONAL
WEATHER SERVICE. USE DATA WITH CAUTION...ESPECIALLY
DEWPOINT OBSERVATIONS.

SCZ001>056-GAZ040-063>065-077-280000-
...UPSTATE SOUTH CAROLINA...

CITY           SKY/WX    TMP DP  RH WIND       PRES   REMARKS
ANDERSON       CLOUDY    74  67  78 S9        29.83F
LIBERTY        CLOUDY    65  64  97 NW5       29.84F FOG
SPARTANBURG    CLOUDY    72  64  78 SE3       29.83F
CLEMSON        LGT RAIN  67  64  90 N5        29.85F FOG
GREENVILLE     CLOUDY    72  68  87 S6        29.84F
GREENWOOD      CLOUDY    75  66  73 S7        29.85S
GREER          CLOUDY    71  68  90 N5        29.83F
ROCK HILL      PTSUNNY   73  67  81 S5        29.86S
CHESTER        CLOUDY    72  66  83 S5        29.86F
LAURENS        MOCLDY    72  68  88 S6        29.84F


...CENTRAL SOUTH CAROLINA...

CITY           SKY/WX    TMP DP  RH WIND       PRES   REMARKS
COLUMBIA APT   CLOUDY    81  67  62 CALM      29.84S
COLUMBIA OWENS CLOUDY    80  67  64 CALM      29.85R
MCENTIRE ANGB  CLOUDY    78  67  69 CALM      29.85R
ORANGEBURG     CLOUDY    78  64  61 S13G23    29.82F
SUMTER SHAW    CLOUDY    78  65  62 S7        29.84R
NEWBERRY       CLOUDY    73  68  83 S3        29.88S
AIKEN          FAIR      77  64  65 SW3       29.88S
BARNWELL       FAIR      82  68  61 S7        29.83R
MANNING        FAIR      77  61  57 S24       29.84F
CAMDEN         CLOUDY    77  66  69 CALM      29.87S
LANCASTER      CLOUDY    73  72  94 SE5       29.86S
WINNSBORO      CLOUDY    73  68  83 SE3       29.85F


...EASTERN AND COASTAL SOUTH CAROLINA...

CITY           SKY/WX    TMP DP  RH WIND       PRES   REMARKS
MYRTLE BEACH   SUNNY     73  68  83 S12       29.92F
N MYRTLE BCH   PTSUNNY   72  69  90 S9        29.90F
CONWAY         FAIR      73  68  83 S7        29.89F
MARION         FAIR      77  64  65 S8        29.87F
HARTSVILLE     CLOUDY    75  64  69 SE5       29.88R
FLORENCE       PTSUNNY   78  66  66 S6        29.87S
DARLINGTON     CLOUDY    78  67  68 S5        29.90R
CHARLESTON APT CLOUDY    78  63  59 S17G24    29.88F
MOUNT PLEASANT FAIR      75  72  88 S10G17    29.89F
WALTERBORO     CLOUDY    79  61  53 S7        29.87F
BEAUFORT       CLOUDY    80  65  59 S7        29.87F


...EASTERN GEORGIA...

CITY           SKY/WX    TMP DP  RH WIND       PRES   REMARKS
AUGUSTA BUSH F CLOUDY    78  68  71 W6        29.83R
AUGUSTA DANIEL PTSUNNY   78  64  61 VRB5      29.85R
THOMSON        CLOUDY    76  65  69 NW8       29.90R
WASHINGTON     FAIR      75  68  78 SW6       29.85R
CLAXTON        MOCLDY    88  67  51 S5        29.84F
SYLVANIA       CLOUDY   N/A N/A N/A S6        29.85S
STATESBORO     CLOUDY    87  63  43 SW7       29.84F


...SOUTHERN NORTH CAROLINA...

CITY           SKY/WX    TMP DP  RH WIND       PRES   REMARKS
CHARLOTTE      CLOUDY    74  65  73 S9        29.85F
MONROE         CLOUDY    74  65  73 VRB5      29.85S
WADESBORO      CLOUDY    75  66  72 SE6       29.86R
ROCKINGHAM     CLOUDY    77  67  71 S6        29.87F
RUTHERFORDTON  LGT RAIN  62  62 100 NW6       29.87S
ASHEVILLE      CLOUDY    64  60  87 CALM      29.89R

$$




USA.gov is the U.S. government's official web portal to all federal, state and local government web resources and services.